Year,Month,Day,Hour,Minute,Value (Times are PST for temperature in C)
2008,05,23,00,00,7.80
2008,05,23,00,01,7.80
2008,05,23,00,02,7.80
2008,05,23,00,03,7.80
2008,05,23,00,04,7.80
2008,05,23,00,05,7.80
2008,05,23,00,06,7.70
2008,05,23,00,07,7.70
2008,05,23,00,08,7.70
2008,05,23,00,09,7.70
2008,05,23,00,10,7.70
2008,05,23,00,11,7.70
2008,05,23,00,12,7.60
2008,05,23,00,13,7.60
2008,05,23,01,02,6.60
2008,05,23,01,03,6.60
2008,05,23,01,04,6.60
2008,05,23,01,05,6.60
2008,05,23,01,06,6.60
2008,05,23,01,07,6.60
2008,05,23,01,08,6.60
2008,05,23,01,09,6.60
2008,05,23,01,10,6.60
2008,05,23,01,11,6.60
2008,05,23,01,12,6.60
2008,05,23,01,13,6.60
2008,05,23,01,14,6.60
2008,05,23,01,15,6.60
2008,05,23,01,16,6.60
2008,05,23,01,17,6.60
2008,05,23,01,18,6.60
2008,05,23,01,19,6.60
2008,05,23,01,20,6.60
2008,05,23,01,21,6.60
2008,05,23,01,22,6.60
2008,05,23,01,23,6.60
2008,05,23,01,24,6.60
2008,05,23,01,25,6.60
2008,05,23,01,26,6.60
2008,05,23,01,27,6.50
2008,05,23,01,28,6.50
2008,05,23,01,29,6.40
2008,05,23,01,30,6.40
2008,05,23,01,31,6.40
2008,05,23,01,32,6.40
2008,05,23,01,33,6.40
2008,05,23,01,34,6.40
2008,05,23,01,35,6.40
2008,05,23,01,36,6.30
2008,05,23,01,37,6.30
2008,05,23,01,38,6.30
2008,05,23,01,39,6.30
2008,05,23,01,40,6.30
2008,05,23,01,41,6.30
2008,05,23,01,42,6.30
2008,05,23,01,43,6.30
2008,05,23,01,44,6.40
2008,05,23,01,45,6.40
2008,05,23,01,46,6.30
2008,05,23,01,47,6.40
2008,05,23,01,48,6.40
2008,05,23,01,49,6.30
2008,05,23,01,50,6.30
2008,05,23,01,51,6.30
2008,05,23,01,52,6.30
2008,05,23,01,53,6.30
2008,05,23,01,54,6.30
2008,05,23,01,55,6.30
2008,05,23,01,56,6.20
2008,05,23,01,57,6.20
2008,05,23,01,58,6.20
2008,05,23,01,59,6.20
2008,05,23,02,00,6.20
2008,05,23,02,01,6.20
2008,05,23,02,02,6.20
2008,05,23,02,03,6.10
2008,05,23,02,04,6.10
2008,05,23,02,05,6.10
2008,05,23,02,06,6.20
2008,05,23,02,07,6.20
2008,05,23,02,08,6.20
2008,05,23,02,09,6.20
2008,05,23,02,10,6.20
2008,05,23,02,11,6.20
2008,05,23,02,12,6.20
2008,05,23,02,13,6.20
2008,05,23,02,14,6.20
2008,05,23,02,15,6.20
2008,05,23,02,16,6.20
2008,05,23,02,17,6.20
2008,05,23,02,18,6.10
2008,05,23,02,19,6.10
2008,05,23,02,20,6.10
2008,05,23,02,21,6.10
2008,05,23,02,22,6.10
2008,05,23,02,23,6.00
2008,05,23,02,24,6.00
2008,05,23,02,25,5.90
2008,05,23,02,26,5.90
2008,05,23,02,27,5.90
2008,05,23,02,28,5.90
2008,05,23,02,29,5.90
2008,05,23,02,30,5.90
2008,05,23,02,31,5.80
2008,05,23,02,32,5.90
2008,05,23,02,33,5.80
2008,05,23,02,34,5.80
2008,05,23,02,35,5.80
2008,05,23,02,36,5.80
2008,05,23,02,37,5.80
2008,05,23,02,38,5.80
2008,05,23,02,39,5.80
2008,05,23,02,40,5.80
2008,05,23,02,41,5.80
2008,05,23,02,42,5.80
2008,05,23,02,43,5.80
2008,05,23,02,44,5.80
2008,05,23,02,45,5.80
2008,05,23,02,46,5.80
2008,05,23,02,47,5.80
2008,05,23,02,48,5.80
2008,05,23,02,49,5.80
2008,05,23,02,50,5.80
2008,05,23,02,51,5.80
2008,05,23,02,52,5.80
2008,05,23,02,53,5.80
2008,05,23,02,54,5.80
2008,05,23,02,55,5.90
2008,05,23,02,56,5.90
2008,05,23,02,57,5.90
2008,05,23,02,58,5.80
2008,05,23,02,59,5.80
2008,05,23,03,00,5.80
2008,05,23,03,01,5.80
2008,05,23,03,02,5.80
2008,05,23,03,03,5.70
2008,05,23,03,04,5.70
2008,05,23,03,05,5.70
2008,05,23,03,06,5.60
2008,05,23,03,07,5.60
2008,05,23,03,08,5.60
2008,05,23,03,09,5.60
2008,05,23,03,10,5.60
2008,05,23,03,11,5.50
2008,05,23,03,12,5.50
2008,05,23,03,13,5.50
2008,05,23,03,14,5.40
2008,05,23,03,15,5.40
2008,05,23,03,16,5.40
2008,05,23,03,17,5.40
2008,05,23,03,18,5.40
2008,05,23,03,19,5.40
2008,05,23,03,20,5.40
2008,05,23,03,21,5.40
2008,05,23,03,22,5.40
2008,05,23,03,23,5.40
2008,05,23,03,24,5.40
2008,05,23,03,25,5.40
2008,05,23,03,26,5.40
2008,05,23,03,27,5.40
2008,05,23,03,28,5.40
2008,05,23,03,29,5.40
2008,05,23,03,30,5.40
2008,05,23,03,31,5.40
2008,05,23,03,32,5.40
2008,05,23,03,33,5.40
2008,05,23,03,34,5.40
2008,05,23,03,35,5.40
2008,05,23,03,36,5.50
2008,05,23,03,37,5.50
2008,05,23,03,38,5.50
2008,05,23,03,39,5.50
2008,05,23,03,40,5.50
2008,05,23,03,41,5.50
2008,05,23,03,42,5.50
2008,05,23,03,43,5.50
2008,05,23,03,44,5.50
2008,05,23,03,45,5.60
2008,05,23,03,46,5.60
2008,05,23,03,47,5.50
2008,05,23,03,48,5.50
2008,05,23,03,49,5.50
2008,05,23,03,50,5.50
2008,05,23,03,51,5.40
2008,05,23,03,52,5.40
2008,05,23,03,53,5.50
2008,05,23,03,54,5.50
2008,05,23,03,55,5.50
2008,05,23,03,56,5.40
2008,05,23,03,57,5.40
2008,05,23,03,58,5.40
2008,05,23,03,59,5.40
2008,05,23,04,00,5.40
2008,05,23,04,01,5.40
2008,05,23,04,02,5.40
2008,05,23,04,03,5.40
2008,05,23,04,04,5.40
2008,05,23,04,05,5.40
2008,05,23,04,06,5.40
2008,05,23,04,07,5.40
2008,05,23,04,08,5.40
2008,05,23,04,09,5.40
2008,05,23,04,10,5.40
2008,05,23,04,11,5.40
2008,05,23,04,12,5.30
2008,05,23,04,13,5.30
2008,05,23,04,14,5.30
2008,05,23,04,15,5.30
2008,05,23,04,16,5.30
2008,05,23,04,17,5.30
2008,05,23,04,18,5.30
2008,05,23,04,19,5.30
2008,05,23,04,20,5.30
2008,05,23,04,21,5.30
2008,05,23,04,22,5.30
2008,05,23,04,23,5.30
2008,05,23,04,24,5.40
2008,05,23,04,25,5.40
2008,05,23,04,26,5.40
2008,05,23,04,27,5.30
2008,05,23,04,28,5.30
2008,05,23,04,29,5.30
2008,05,23,04,30,5.30
2008,05,23,04,31,5.30
2008,05,23,04,32,5.30
2008,05,23,04,33,5.30
2008,05,23,04,34,5.20
2008,05,23,04,35,5.10
2008,05,23,04,36,5.10
2008,05,23,04,37,5.10
2008,05,23,04,38,5.10
2008,05,23,04,39,5.10
2008,05,23,04,40,5.10
2008,05,23,04,41,5.10
2008,05,23,04,42,5.10
2008,05,23,04,43,5.10
2008,05,23,04,44,5.10
2008,05,23,04,45,5.10
2008,05,23,04,46,5.10
2008,05,23,04,47,5.10
2008,05,23,04,48,5.10
2008,05,23,04,49,5.10
2008,05,23,04,50,5.10
2008,05,23,04,51,5.10
2008,05,23,04,52,5.10
2008,05,23,04,53,5.10
2008,05,23,04,54,5.10
2008,05,23,04,55,5.10
2008,05,23,04,56,5.10
2008,05,23,04,57,5.10
2008,05,23,04,58,5.00
2008,05,23,04,59,5.00
2008,05,23,05,00,4.90
2008,05,23,05,01,4.90
2008,05,23,05,02,4.90
2008,05,23,05,03,4.90
2008,05,23,05,04,4.90
2008,05,23,05,05,4.90
2008,05,23,05,06,4.90
2008,05,23,05,07,4.90
2008,05,23,05,08,4.90
2008,05,23,05,09,4.90
2008,05,23,05,10,4.90
2008,05,23,05,11,4.80
2008,05,23,05,12,4.80
2008,05,23,05,13,4.80
2008,05,23,05,14,4.80
2008,05,23,05,15,4.80
2008,05,23,05,16,4.80
2008,05,23,05,17,4.70
2008,05,23,05,18,4.70
2008,05,23,05,19,4.70
2008,05,23,05,20,4.60
2008,05,23,05,21,4.60
2008,05,23,05,22,4.60
2008,05,23,05,23,4.60
2008,05,23,05,24,4.60
2008,05,23,05,25,4.60
2008,05,23,05,26,4.60
2008,05,23,05,27,4.60
2008,05,23,05,28,4.70
2008,05,23,05,29,4.70
2008,05,23,05,30,4.70
2008,05,23,05,31,4.80
2008,05,23,05,32,4.70
2008,05,23,05,33,4.70
2008,05,23,05,34,4.70
2008,05,23,05,35,4.70
2008,05,23,05,36,4.70
2008,05,23,05,37,4.70
2008,05,23,05,38,4.70
2008,05,23,05,39,4.70
2008,05,23,05,40,4.70
2008,05,23,05,41,4.70
2008,05,23,05,42,4.70
2008,05,23,05,43,4.70
2008,05,23,05,44,4.70
2008,05,23,05,45,4.70
2008,05,23,05,46,4.60
2008,05,23,05,47,4.60
2008,05,23,05,48,4.60
2008,05,23,05,49,4.60
2008,05,23,05,50,4.60
2008,05,23,05,51,4.60
2008,05,23,05,52,4.60
2008,05,23,05,53,4.60
2008,05,23,05,54,4.60
2008,05,23,05,55,4.60
2008,05,23,05,56,4.60
2008,05,23,05,57,4.60
2008,05,23,05,58,4.60
2008,05,23,05,59,4.60
2008,05,23,06,00,4.60
2008,05,23,06,01,4.70
2008,05,23,06,02,4.70
2008,05,23,06,03,4.70
2008,05,23,06,04,4.70
2008,05,23,06,05,4.70
2008,05,23,06,06,4.70
2008,05,23,06,07,4.70
2008,05,23,06,08,4.70
2008,05,23,06,09,4.70
2008,05,23,06,10,4.70
2008,05,23,06,11,4.70
2008,05,23,06,12,4.70
2008,05,23,06,13,4.70
2008,05,23,06,14,4.70
2008,05,23,06,15,4.70
2008,05,23,06,16,4.70
2008,05,23,06,17,4.70
2008,05,23,06,18,4.70
2008,05,23,06,19,4.70
2008,05,23,06,20,4.70
2008,05,23,06,21,4.70
2008,05,23,06,22,4.70
2008,05,23,06,23,4.70
2008,05,23,06,24,4.70
2008,05,23,06,25,4.70
2008,05,23,06,26,4.70
2008,05,23,06,27,4.80
2008,05,23,06,28,4.80
2008,05,23,06,29,4.80
2008,05,23,06,30,4.80
2008,05,23,06,31,4.80
2008,05,23,06,32,4.80
2008,05,23,06,33,4.80
2008,05,23,06,34,4.90
2008,05,23,06,35,4.90
2008,05,23,06,36,4.90
2008,05,23,06,37,4.90
2008,05,23,06,38,4.90
2008,05,23,06,39,5.00
2008,05,23,06,40,5.00
2008,05,23,06,41,5.00
2008,05,23,06,42,5.00
2008,05,23,06,43,5.00
2008,05,23,06,44,5.00
2008,05,23,06,45,5.00
2008,05,23,06,46,5.00
2008,05,23,06,47,5.10
2008,05,23,06,48,5.10
2008,05,23,06,49,5.10
2008,05,23,06,50,5.10
2008,05,23,06,51,5.10
2008,05,23,06,52,5.10
2008,05,23,06,53,5.20
2008,05,23,06,54,5.20
2008,05,23,06,55,5.30
2008,05,23,06,56,5.30
2008,05,23,06,57,5.40
2008,05,23,06,58,5.40
2008,05,23,06,59,5.40
2008,05,23,07,00,5.40
2008,05,23,07,01,5.50
2008,05,23,07,02,5.60
2008,05,23,07,03,5.60
2008,05,23,07,04,5.60
2008,05,23,07,05,5.70
2008,05,23,07,06,5.70
2008,05,23,07,07,5.80
2008,05,23,07,08,5.90
2008,05,23,07,09,5.90
2008,05,23,07,10,6.00
2008,05,23,07,11,6.10
2008,05,23,07,12,6.10
2008,05,23,07,13,6.20
2008,05,23,07,14,6.20
2008,05,23,07,15,6.20
2008,05,23,07,16,6.30
2008,05,23,07,17,6.30
2008,05,23,07,18,6.30
2008,05,23,07,19,6.40
2008,05,23,07,20,6.50
2008,05,23,07,21,6.50
2008,05,23,07,22,6.60
2008,05,23,07,23,6.60
2008,05,23,07,24,6.70
2008,05,23,07,25,6.70
2008,05,23,07,26,6.80
2008,05,23,07,27,6.90
2008,05,23,07,28,7.00
2008,05,23,07,29,7.10
2008,05,23,07,30,7.20
2008,05,23,07,31,7.20
2008,05,23,07,32,7.30
2008,05,23,07,33,7.40
2008,05,23,07,34,7.60
2008,05,23,07,35,7.70
2008,05,23,07,36,7.80
2008,05,23,07,37,7.80
2008,05,23,07,38,7.90
2008,05,23,07,39,8.00
2008,05,23,07,40,8.00
2008,05,23,07,41,8.00
2008,05,23,07,42,8.10
2008,05,23,07,43,8.10
2008,05,23,07,44,8.10
2008,05,23,07,45,8.10
2008,05,23,07,46,8.10
2008,05,23,07,47,8.10
2008,05,23,07,48,8.10
2008,05,23,07,49,8.10
2008,05,23,07,50,8.10
2008,05,23,07,51,8.20
2008,05,23,07,52,8.20
2008,05,23,07,53,8.20
2008,05,23,07,54,8.20
2008,05,23,07,55,8.20
2008,05,23,07,56,8.20
2008,05,23,07,57,8.30
2008,05,23,07,58,8.30
2008,05,23,07,59,8.30
2008,05,23,08,00,8.30
2008,05,23,08,01,8.30
2008,05,23,08,02,8.40
2008,05,23,08,03,8.40
2008,05,23,08,04,8.40
2008,05,23,08,05,8.50
2008,05,23,08,06,8.50
2008,05,23,08,07,8.50
2008,05,23,08,08,8.60
2008,05,23,08,09,8.60
2008,05,23,08,10,8.60
2008,05,23,08,11,8.60
2008,05,23,08,12,8.70
2008,05,23,08,13,8.70
2008,05,23,08,14,8.80
2008,05,23,08,15,8.80
2008,05,23,08,16,8.80
2008,05,23,08,17,8.80
2008,05,23,08,18,8.90
2008,05,23,08,19,8.90
2008,05,23,08,20,8.90
2008,05,23,08,21,8.90
2008,05,23,08,22,8.90
2008,05,23,08,23,9.00
2008,05,23,08,24,9.00
2008,05,23,08,25,9.00
2008,05,23,08,26,9.10
2008,05,23,08,27,9.10
2008,05,23,08,28,9.10
2008,05,23,08,29,9.20
2008,05,23,08,30,9.20
2008,05,23,08,31,9.20
2008,05,23,08,32,9.20
2008,05,23,08,33,9.30
2008,05,23,08,34,9.30
2008,05,23,08,35,9.40
2008,05,23,08,36,9.40
2008,05,23,08,37,9.50
2008,05,23,08,38,9.60
2008,05,23,08,39,9.60
2008,05,23,08,40,9.70
2008,05,23,08,41,9.80
2008,05,23,08,42,9.90
2008,05,23,08,43,10.00
2008,05,23,08,44,10.10
2008,05,23,08,45,10.10
2008,05,23,08,46,10.20
2008,05,23,08,47,10.20
2008,05,23,08,48,10.30
2008,05,23,08,49,10.40
2008,05,23,08,50,10.50
2008,05,23,08,51,10.50
2008,05,23,08,52,10.60
2008,05,23,08,53,10.70
2008,05,23,08,54,10.70
2008,05,23,08,55,10.80
2008,05,23,08,56,10.80
2008,05,23,08,57,10.80
2008,05,23,08,58,10.90
2008,05,23,08,59,10.90
2008,05,23,09,00,11.00
2008,05,23,09,01,11.00
2008,05,23,09,02,11.10
2008,05,23,09,03,11.10
2008,05,23,09,04,11.20
2008,05,23,09,05,11.20
2008,05,23,09,06,11.30
2008,05,23,09,07,11.30
2008,05,23,09,08,11.30
2008,05,23,09,09,11.40
2008,05,23,09,10,11.40
2008,05,23,09,11,11.50
2008,05,23,09,12,11.50
2008,05,23,09,13,11.60
2008,05,23,09,14,11.70
2008,05,23,09,15,11.70
2008,05,23,09,16,11.80
2008,05,23,09,17,11.90
2008,05,23,09,18,12.00
2008,05,23,09,19,12.10
2008,05,23,09,20,12.20
2008,05,23,09,21,12.30
2008,05,23,09,22,12.40
2008,05,23,09,23,12.40
2008,05,23,09,24,12.50
2008,05,23,09,25,12.60
2008,05,23,09,26,12.70
2008,05,23,09,27,12.80
2008,05,23,09,28,12.90
2008,05,23,09,29,13.10
2008,05,23,09,30,13.20
2008,05,23,09,31,13.30
2008,05,23,09,32,13.50
2008,05,23,09,33,13.60
2008,05,23,09,34,13.60
2008,05,23,09,35,13.70
2008,05,23,09,36,13.80
2008,05,23,09,37,13.80
2008,05,23,09,38,13.80
2008,05,23,09,39,13.80
2008,05,23,09,40,13.80
2008,05,23,09,41,13.80
2008,05,23,09,42,13.80
2008,05,23,09,43,13.80
2008,05,23,09,44,13.80
2008,05,23,09,45,13.80
2008,05,23,09,46,13.90
2008,05,23,09,47,13.90
2008,05,23,09,48,14.00
2008,05,23,09,49,14.10
2008,05,23,09,50,14.10
2008,05,23,09,51,14.20
2008,05,23,09,52,14.30
2008,05,23,09,53,14.30
2008,05,23,09,54,14.40
2008,05,23,09,55,14.50
2008,05,23,09,56,14.60
2008,05,23,09,57,14.70
2008,05,23,09,58,14.70
2008,05,23,09,59,14.70
2008,05,23,10,00,14.70
2008,05,23,10,01,14.70
2008,05,23,10,02,14.60
2008,05,23,10,03,14.60
2008,05,23,10,04,14.50
2008,05,23,10,05,14.50
2008,05,23,10,06,14.40
2008,05,23,10,07,14.40
2008,05,23,10,08,14.40
2008,05,23,10,09,14.40
2008,05,23,10,10,14.40
2008,05,23,10,11,14.50
2008,05,23,10,12,14.50
2008,05,23,10,13,14.60
2008,05,23,10,14,14.60
2008,05,23,10,15,14.70
2008,05,23,10,16,14.80
2008,05,23,10,17,14.90
2008,05,23,10,18,15.00
2008,05,23,10,19,15.00
2008,05,23,10,20,15.20
2008,05,23,10,21,15.40
2008,05,23,10,22,15.60
2008,05,23,10,23,15.80
2008,05,23,10,24,16.00
2008,05,23,10,25,16.20
2008,05,23,10,26,16.30
2008,05,23,10,27,16.30
2008,05,23,10,28,16.30
2008,05,23,10,29,16.20
2008,05,23,10,30,16.10
2008,05,23,10,31,16.00
2008,05,23,10,32,16.00
2008,05,23,10,33,16.10
2008,05,23,10,34,16.20
2008,05,23,10,35,16.20
2008,05,23,10,36,16.30
2008,05,23,10,37,16.30
2008,05,23,10,38,16.40
2008,05,23,10,39,16.40
2008,05,23,10,40,16.50
2008,05,23,10,41,16.50
2008,05,23,10,42,16.60
2008,05,23,10,43,16.60
2008,05,23,10,44,16.60
2008,05,23,10,45,16.70
2008,05,23,10,46,16.60
2008,05,23,10,47,16.60
2008,05,23,10,48,16.60
2008,05,23,10,49,16.50
2008,05,23,10,50,16.50
2008,05,23,10,51,16.40
2008,05,23,10,52,16.40
2008,05,23,10,53,16.30
2008,05,23,10,54,16.30
2008,05,23,10,55,16.30
2008,05,23,10,56,16.00
2008,05,23,10,57,15.50
2008,05,23,10,58,15.00
2008,05,23,10,59,14.70
2008,05,23,11,00,14.20
2008,05,23,11,01,13.90
2008,05,23,11,02,13.70
2008,05,23,11,03,13.40
2008,05,23,11,04,13.20
2008,05,23,11,05,13.00
2008,05,23,11,06,12.90
2008,05,23,11,07,12.80
2008,05,23,11,08,12.70
2008,05,23,11,09,12.60
2008,05,23,11,10,12.50
2008,05,23,11,11,12.40
2008,05,23,11,12,12.40
2008,05,23,11,13,12.30
2008,05,23,11,14,12.30
2008,05,23,11,15,12.30
2008,05,23,11,16,12.40
2008,05,23,11,17,12.40
2008,05,23,11,18,12.40
2008,05,23,11,19,12.50
2008,05,23,11,20,12.50
2008,05,23,11,21,12.60
2008,05,23,11,22,12.60
2008,05,23,11,23,12.60
2008,05,23,11,24,12.60
2008,05,23,11,25,12.70
2008,05,23,11,26,12.70
2008,05,23,11,27,12.80
2008,05,23,11,28,12.80
2008,05,23,11,29,12.90
2008,05,23,11,30,12.90
2008,05,23,11,31,13.00
2008,05,23,11,32,13.10
2008,05,23,11,33,13.10
2008,05,23,11,34,13.20
2008,05,23,11,35,13.30
2008,05,23,11,36,13.30
2008,05,23,11,37,13.30
2008,05,23,11,38,13.40
2008,05,23,11,39,13.50
2008,05,23,11,40,13.50
2008,05,23,11,41,13.50
2008,05,23,11,42,13.60
2008,05,23,11,43,13.60
2008,05,23,11,44,13.60
2008,05,23,11,45,13.50
2008,05,23,11,46,13.40
2008,05,23,11,47,13.40
2008,05,23,11,48,13.30
2008,05,23,11,49,13.30
2008,05,23,11,50,13.30
2008,05,23,11,51,13.30
2008,05,23,11,52,13.40
2008,05,23,11,53,13.40
2008,05,23,11,54,13.40
2008,05,23,11,55,13.40
2008,05,23,11,56,13.30
2008,05,23,11,57,13.30
2008,05,23,11,58,13.40
2008,05,23,11,59,13.40
2008,05,23,12,00,13.50
2008,05,23,12,01,13.50
2008,05,23,12,02,13.50
2008,05,23,12,03,13.50
2008,05,23,12,04,13.50
2008,05,23,12,05,13.60
2008,05,23,12,06,13.60
2008,05,23,12,07,13.60
2008,05,23,12,08,13.70
2008,05,23,12,09,13.70
2008,05,23,12,10,13.90
2008,05,23,12,11,14.00
2008,05,23,12,12,14.10
2008,05,23,12,13,14.20
2008,05,23,12,14,14.30
2008,05,23,12,15,14.30
2008,05,23,12,16,14.30
2008,05,23,12,17,14.30
2008,05,23,12,18,14.30
2008,05,23,12,19,14.40
2008,05,23,12,20,14.50
2008,05,23,12,21,14.60
2008,05,23,12,22,14.80
2008,05,23,12,23,14.70
2008,05,23,12,24,14.70
2008,05,23,12,25,14.70
2008,05,23,12,26,14.70
2008,05,23,12,27,14.70
2008,05,23,12,28,14.70
2008,05,23,12,29,14.70
2008,05,23,12,30,14.60
2008,05,23,12,31,14.60
2008,05,23,12,32,14.70
2008,05,23,12,33,14.90
2008,05,23,12,34,15.00
2008,05,23,12,35,15.00
2008,05,23,12,36,15.10
2008,05,23,12,37,15.20
2008,05,23,12,38,15.20
2008,05,23,12,39,15.20
2008,05,23,12,40,15.10
2008,05,23,12,41,15.10
2008,05,23,12,42,15.10
2008,05,23,12,43,15.20
2008,05,23,12,44,15.30
2008,05,23,12,45,15.50
2008,05,23,12,46,15.70
2008,05,23,12,47,15.90
2008,05,23,12,48,16.20
2008,05,23,12,49,16.40
2008,05,23,12,50,16.70
2008,05,23,12,51,16.90
2008,05,23,12,52,17.10
2008,05,23,12,53,17.30
2008,05,23,12,54,17.40
2008,05,23,12,55,17.50
2008,05,23,12,56,17.50
2008,05,23,12,57,17.60
2008,05,23,12,58,17.50
2008,05,23,12,59,17.50
2008,05,23,13,00,17.60
2008,05,23,13,01,17.60
2008,05,23,13,02,17.60
2008,05,23,13,03,17.70
2008,05,23,13,04,17.90
2008,05,23,13,05,18.00
2008,05,23,13,06,18.20
2008,05,23,13,07,18.30
2008,05,23,13,08,18.30
2008,05,23,13,09,18.30
2008,05,23,13,10,18.30
2008,05,23,13,11,18.30
2008,05,23,13,12,18.30
2008,05,23,13,13,18.30
2008,05,23,13,14,18.30
2008,05,23,13,15,18.20
2008,05,23,13,16,18.20
2008,05,23,13,17,18.10
2008,05,23,13,18,18.10
2008,05,23,13,19,18.00
2008,05,23,13,20,18.00
2008,05,23,13,21,17.90
2008,05,23,13,22,17.90
2008,05,23,13,23,17.70
2008,05,23,13,24,17.50
2008,05,23,13,25,17.40
2008,05,23,13,26,17.20
2008,05,23,13,27,17.10
2008,05,23,13,28,17.00
2008,05,23,13,29,16.90
2008,05,23,13,30,16.80
2008,05,23,13,31,16.70
2008,05,23,13,32,16.60
2008,05,23,13,33,16.50
2008,05,23,13,34,16.40
2008,05,23,13,35,16.20
2008,05,23,13,36,16.20
2008,05,23,13,37,16.20
2008,05,23,13,38,16.20
2008,05,23,13,39,16.20
2008,05,23,13,40,16.10
2008,05,23,13,41,16.10
2008,05,23,13,42,16.10
2008,05,23,13,43,16.10
2008,05,23,13,44,16.10
2008,05,23,13,45,16.10
2008,05,23,13,46,16.10
2008,05,23,13,47,16.10
2008,05,23,13,48,16.20
2008,05,23,13,49,16.20
2008,05,23,13,50,16.20
2008,05,23,13,51,16.20
2008,05,23,13,52,16.20
2008,05,23,13,53,16.20
2008,05,23,13,54,16.20
2008,05,23,13,55,16.10
2008,05,23,13,56,16.10
2008,05,23,13,57,16.00
2008,05,23,13,58,15.90
2008,05,23,13,59,15.90
2008,05,23,14,00,15.90
2008,05,23,14,01,15.80
2008,05,23,14,02,15.90
2008,05,23,14,03,15.90
2008,05,23,14,04,15.90
2008,05,23,14,05,15.90
2008,05,23,14,06,15.80
2008,05,23,14,07,15.70
2008,05,23,14,08,15.70
2008,05,23,14,09,15.60
2008,05,23,14,10,15.60
2008,05,23,14,11,15.60
2008,05,23,14,12,15.60
2008,05,23,14,13,15.60
2008,05,23,14,14,15.60
2008,05,23,14,15,15.70
2008,05,23,14,16,15.80
2008,05,23,14,17,15.80
2008,05,23,14,18,15.80
2008,05,23,14,19,15.90
2008,05,23,14,20,16.00
2008,05,23,14,21,16.00
2008,05,23,14,22,16.10
2008,05,23,14,23,16.10
2008,05,23,14,24,16.00
2008,05,23,14,25,16.00
2008,05,23,14,26,16.00
2008,05,23,14,27,15.90
2008,05,23,14,28,15.90
2008,05,23,14,29,15.90
2008,05,23,14,30,15.90
2008,05,23,14,31,15.90
2008,05,23,14,32,15.90
2008,05,23,14,33,15.80
2008,05,23,14,34,15.80
2008,05,23,14,35,15.80
2008,05,23,14,36,15.90
2008,05,23,14,37,15.90
2008,05,23,14,38,16.00
2008,05,23,14,39,16.10
2008,05,23,14,40,16.20
2008,05,23,14,41,16.30
2008,05,23,14,42,16.30
2008,05,23,14,43,16.40
2008,05,23,14,44,16.50
2008,05,23,14,45,16.60
2008,05,23,14,46,16.70
2008,05,23,14,47,16.80
2008,05,23,14,48,16.80
2008,05,23,14,49,16.90
2008,05,23,14,50,17.00
2008,05,23,14,51,17.10
2008,05,23,14,52,17.20
2008,05,23,14,53,17.30
2008,05,23,14,54,17.40
2008,05,23,14,55,17.50
2008,05,23,14,56,17.50
2008,05,23,14,57,17.40
2008,05,23,14,58,17.40
2008,05,23,14,59,17.30
2008,05,23,15,00,17.30
2008,05,23,15,01,17.40
2008,05,23,15,02,17.40
2008,05,23,15,03,17.20
2008,05,23,15,04,17.10
2008,05,23,15,05,16.90
2008,05,23,15,06,16.70
2008,05,23,15,07,16.50
2008,05,23,15,08,16.30
2008,05,23,15,09,16.20
2008,05,23,15,10,16.20
2008,05,23,15,11,16.20
2008,05,23,15,12,16.20
2008,05,23,15,13,16.10
2008,05,23,15,14,16.10
2008,05,23,15,15,16.10
2008,05,23,15,16,16.00
2008,05,23,15,17,16.00
2008,05,23,15,18,15.90
2008,05,23,15,19,15.90
2008,05,23,15,20,15.90
2008,05,23,15,21,15.90
2008,05,23,15,22,15.90
2008,05,23,15,23,15.90
2008,05,23,15,24,15.90
2008,05,23,15,25,15.90
2008,05,23,15,26,15.90
2008,05,23,15,27,15.80
2008,05,23,15,28,15.80
2008,05,23,15,29,15.70
2008,05,23,15,30,15.60
2008,05,23,15,31,15.60
2008,05,23,15,32,15.40
2008,05,23,15,33,15.30
2008,05,23,15,34,15.30
2008,05,23,15,35,15.30
2008,05,23,15,36,15.30
2008,05,23,15,37,15.30
2008,05,23,15,38,15.30
2008,05,23,15,39,15.30
2008,05,23,15,40,15.20
2008,05,23,15,41,15.20
2008,05,23,15,42,15.20
2008,05,23,15,43,15.20
2008,05,23,15,44,15.20
2008,05,23,15,45,15.10
2008,05,23,15,46,15.20
2008,05,23,15,47,15.20
2008,05,23,15,48,15.20
2008,05,23,15,49,15.20
2008,05,23,15,50,15.10
2008,05,23,15,51,15.10
2008,05,23,15,52,15.10
2008,05,23,15,53,15.20
2008,05,23,15,54,15.20
2008,05,23,15,55,15.20
2008,05,23,15,56,15.20
2008,05,23,15,57,15.20
2008,05,23,15,58,15.20
2008,05,23,15,59,15.30
2008,05,23,16,00,15.30
2008,05,23,16,01,15.30
2008,05,23,16,02,15.30
2008,05,23,16,03,15.30
2008,05,23,16,04,15.30
2008,05,23,16,05,15.20
2008,05,23,16,06,15.20
2008,05,23,16,07,15.20
2008,05,23,16,08,15.30
2008,05,23,16,09,15.30
2008,05,23,16,10,15.30
2008,05,23,16,11,15.40
2008,05,23,16,12,15.50
2008,05,23,16,13,15.50
2008,05,23,16,14,15.50
2008,05,23,16,15,15.50
2008,05,23,16,16,15.50
2008,05,23,16,17,15.50
2008,05,23,16,18,15.50
2008,05,23,16,19,15.60
2008,05,23,16,20,15.60
2008,05,23,16,21,15.60
2008,05,23,16,22,15.60
2008,05,23,16,23,15.70
2008,05,23,16,24,15.70
2008,05,23,16,25,15.70
2008,05,23,16,26,15.70
2008,05,23,16,27,15.70
2008,05,23,16,28,15.60
2008,05,23,16,29,15.60
2008,05,23,16,30,15.70
2008,05,23,16,31,15.70
2008,05,23,16,32,15.70
2008,05,23,16,33,15.80
2008,05,23,16,34,15.80
2008,05,23,16,35,15.80
2008,05,23,16,36,15.80
2008,05,23,16,37,15.80
2008,05,23,16,38,15.80
2008,05,23,16,39,15.80
2008,05,23,16,40,15.80
2008,05,23,16,41,15.80
2008,05,23,16,42,15.80
2008,05,23,16,43,15.80
2008,05,23,16,44,15.80
2008,05,23,16,45,15.80
2008,05,23,16,46,15.80
2008,05,23,16,47,15.80
2008,05,23,16,48,15.80
2008,05,23,16,49,15.80
2008,05,23,16,50,15.90
2008,05,23,16,51,15.90
2008,05,23,16,52,15.80
2008,05,23,16,53,15.80
2008,05,23,16,54,15.80
2008,05,23,16,55,15.80
2008,05,23,16,56,15.80
2008,05,23,16,57,15.80
2008,05,23,16,58,15.80
2008,05,23,16,59,15.80
2008,05,23,17,00,15.90
2008,05,23,17,01,15.90
2008,05,23,17,02,15.90
2008,05,23,17,03,15.90
2008,05,23,17,04,15.90
2008,05,23,17,05,15.90
2008,05,23,17,06,16.00
2008,05,23,17,07,16.00
2008,05,23,17,08,16.10
2008,05,23,17,09,16.00
2008,05,23,17,10,16.00
2008,05,23,17,11,15.90
2008,05,23,17,12,15.90
2008,05,23,17,13,15.90
2008,05,23,17,14,15.90
2008,05,23,17,15,16.00
2008,05,23,17,16,16.00
2008,05,23,17,17,16.00
2008,05,23,17,18,16.10
2008,05,23,17,19,16.10
2008,05,23,17,20,16.10
2008,05,23,17,21,16.00
2008,05,23,17,22,16.00
2008,05,23,17,23,16.00
2008,05,23,17,24,16.00
2008,05,23,17,25,16.00
2008,05,23,17,26,16.00
2008,05,23,17,27,16.00
2008,05,23,17,28,16.10
2008,05,23,17,29,16.10
2008,05,23,17,30,16.00
2008,05,23,17,31,16.00
2008,05,23,17,32,16.10
2008,05,23,17,33,16.10
2008,05,23,17,34,16.10
2008,05,23,17,35,16.10
2008,05,23,17,36,16.10
2008,05,23,17,37,16.10
2008,05,23,17,38,16.10
2008,05,23,17,39,16.10
2008,05,23,17,40,16.10
2008,05,23,17,41,16.10
2008,05,23,17,42,16.20
2008,05,23,17,43,16.20
2008,05,23,17,44,16.20
2008,05,23,17,45,16.20
2008,05,23,17,46,16.20
2008,05,23,17,47,16.20
2008,05,23,17,48,16.20
2008,05,23,17,49,16.20
2008,05,23,17,50,16.20
2008,05,23,17,51,16.20
2008,05,23,17,52,16.20
2008,05,23,17,53,16.20
2008,05,23,17,54,16.20
2008,05,23,17,55,16.20
2008,05,23,17,56,16.10
2008,05,23,17,57,16.20
2008,05,23,17,58,16.10
2008,05,23,17,59,16.10
2008,05,23,18,00,16.10
2008,05,23,18,01,16.10
2008,05,23,18,02,16.10
2008,05,23,18,03,16.20
2008,05,23,18,04,16.10
2008,05,23,18,05,16.10
2008,05,23,18,06,16.10
2008,05,23,18,07,16.10
2008,05,23,18,08,16.20
2008,05,23,18,09,16.20
2008,05,23,18,10,16.20
2008,05,23,18,11,16.20
2008,05,23,18,12,16.20
2008,05,23,18,13,16.20
2008,05,23,18,14,16.20
2008,05,23,18,15,16.30
2008,05,23,18,16,16.30
2008,05,23,18,17,16.30
2008,05,23,18,18,16.30
2008,05,23,18,19,16.30
2008,05,23,18,20,16.30
2008,05,23,18,21,16.40
2008,05,23,18,22,16.40
2008,05,23,18,23,16.50
2008,05,23,18,24,16.50
2008,05,23,18,25,16.50
2008,05,23,18,26,16.50
2008,05,23,18,27,16.50
2008,05,23,18,28,16.50